Regional Weather Roundup
Issued by NWS Upton, NY

Current Version | Previous Version | Graphics & Text | Print | Product List | Glossary Off
Versions: 1 2 3 4 5 6 7 8 9 10 11 12 13 14 15 16 17 18 19 20 21 22 23 24 25 26 27

000
ASUS41 KOKX 200508
RWROKX

REGIONAL WEATHER ROUNDUP
NATIONAL WEATHER SERVICE NEW YORK NY
100 AM EDT SUN AUG 20 2017

NOTE: "FAIR" INDICATES FEW OR NO CLOUDS BELOW 12,000 FEET WITH NO
SIGNIFICANT WEATHER AND/OR OBSTRUCTIONS TO VISIBILITY.

NYZ071-072-176-178-NJZ106-104-200600-
NEW YORK CITY METRO AREA

CITY           SKY/WX    TMP DP  RH WIND       PRES   REMARKS
Central Park   PTCLDY    77  64  64 CALM      29.92R
Bronx Bot Gard   N/A     77  63  61 SW13      29.90R
LaGuardia APRT PTCLDY    80  65  59 W14       29.89R
Kennedy INTL   PTCLDY    77  70  79 SW14      29.90R
Breezy Point     N/A     75 N/A N/A W9          N/A
Newark/Liberty PTCLDY    77  64  64 W12       29.90R
Teterboro      CLOUDY    76  64  66 NW7       29.89R
$$

NYZ177-179-078>081-200600-
LONG ISLAND NEW YORK

CITY           SKY/WX    TMP DP  RH WIND       PRES   REMARKS
Jones Beach      N/A     75 N/A N/A W9          N/A
Matinecock PT    N/A     77 N/A N/A W12         N/A
Farmingdale    CLEAR     75  67  76 SW7       29.89S
MacArthur/ISP  CLEAR     75  70  84 S7        29.88S
Shirley        CLEAR     75  72  90 S3        29.89F
Mt Sinai Harb    N/A     73 N/A N/A S6          N/A
Westhampton    CLEAR     69  66  90 CALM      29.90F
East Hampton   FAIR      70  67  92 CALM      29.88F
Montauk          N/A     75  69  81 W6        29.90R
$$

NYZ052-065-067-200600-
HUDSON VALLEY

CITY           SKY/WX    TMP DP  RH WIND       PRES   REMARKS
White Plains   CLOUDY    73  65  75 W7        29.90R
Larchmont Harb   N/A     79 N/A N/A W10         N/A
Croton On Huds   N/A     75 N/A N/A NW6         N/A
Newburgh       PTCLDY    70  63  78 W7        29.91S
Montgomery     CLOUDY    66  62  87 SW5       29.91R
Poughkeepsie   MOCLDY    70  64  81 CALM      29.88S
Albany         LGT RAIN  68  60  75 W6        29.90R
$$

NJZ001-105-106-008-010-013-015-019>022-104-200600-
NEW JERSEY

CITY           SKY/WX    TMP DP  RH WIND       PRES   REMARKS
Newark/Liberty PTCLDY    77  64  64 W12       29.90R
Teterboro      CLOUDY    76  64  66 NW7       29.89R
Caldwell       CLEAR     72  67  84 SW3       29.91R
Somerville     CLEAR     70  63  78 VRB3      29.92R
Linden         FAIR      75  63  64 W6        29.91S
Perth Amboy      N/A     73 N/A N/A W15         N/A
Sussex         CLEAR     65  63  93 CALM      29.94R
Andover          N/A     65  64  97 CALM      29.95R
Trenton        CLEAR     71  61  70 W7        29.94R
Millville      CLEAR     71  69  93 W6        29.96R
Atlantic City  PTCLDY    75  68  78 W8        29.95R
Wrightstown    PTCLDY    72  68  87 NW8       29.92R
Toms River     CLEAR     72  68  87 W8        29.94R
Belmar         CLEAR     71  67  87 W6        29.94R
$$

PAZ047>061-062-071-200600-
EASTERN PENNSYLVANIA

CITY           SKY/WX    TMP DP  RH WIND       PRES   REMARKS
Philadelphia   PTCLDY    73  59  61 W7        29.96R
Allentown      CLEAR     66  62  87 W7        29.96R
Scranton       CLOUDY    65  64  97 SW6       29.98R
$$

CTZ002-004>006-009-010-012-RIZ004-006-007-MAZ004-011-015-200600-
SOUTHERN NEW ENGLAND
 IN CT

CITY           SKY/WX    TMP DP  RH WIND       PRES   REMARKS
Bradley INTL   MOCLDY    73  64  73 S5        29.86S
Hartford       CLEAR     73  67  81 CALM      29.86S
Danbury        CLOUDY    71  67  87 CALM      29.91R
Wtrbury/Oxford CLOUDY    72  65  78 CALM      29.90F
Norwalk Harbor   N/A     75 N/A N/A W5          N/A
Bridgeport     CLOUDY    76  71  85 W3        29.87S
Meriden        CLOUDY    68  67  96 CALM      29.87F
New Haven      CLEAR     73  70  90 CALM      29.87F
Chester        FAIR      72  70  94 CALM      29.89S
Groton         PTCLDY    74  69  85 W3        29.87F
Wilimantic     CLEAR     67  66  97 CALM      29.88S

 IN RI

CITY           SKY/WX    TMP DP  RH WIND       PRES   REMARKS
Providence     PTCLDY    73  68  84 W7        29.87S
Block Island   CLEAR     72  69  90 SW10      29.89S
Westerly       CLEAR     72  68  87 CALM      29.89S
 IN MA

CITY           SKY/WX    TMP DP  RH WIND       PRES   REMARKS
Boston         PTCLDY    72  65  78 SW8       29.84S
Worcester      CLEAR     69  61  75 W8        29.89S
Westfield      MOCLDY    68  66  93 S5        29.86S
Provincetown   PTCLDY    70  67  90 SW7       29.86S
Nantucket      FOG       69  69 100 SW12      29.89S VSB 1/4
$$

ANZ330-335-338-340-345-350-353-355-200600-
COASTAL MARINE OBSERVATIONS


STATION/POSITION TIME  SKY/WX   TEMP    WIND        PRES    VSBY  WAVE
                                AIR SEA DIR/SP/G                  HT/PER
                 (UTC)          (F)     (DEG/KT/KT) (MB)    (MI)  (FT/S)
NY HARB ENTRANCE 0350            78 77  230/  8/ 10 1011.8          2/ 6
GREAT SOUTH BAY  0430            78 78  230/  8/ 10   N/A
23 SSW MONTAUK P 0350            74 73              1012.4          3/ 7
15 E BARNEGAT LI 0430               77                N/A           3/ 6
HUDSON CANYON    0350            76 75  250/ 10/ 12 1012.5          3/ 6
KINGS POINT      0424            78 74  290/  4/  8 1011.9
EXECUTION ROCKS  NOT AVBL
WESTERN LI SOUND NOT AVBL
CENTRAL LI SOUND NOT AVBL
EASTERN LI SOUND NOT AVBL
ROBBINS REEF     0430                   260/ 12/ 13 1013.0
$$


>>>>>>>>>>>>>>>>>>>>>>>>>>>> KEY <<<<<<<<<<<<<<<<<<<<<<<<<<<
>                                                          <
>     SKY/WX - Sky Condition/Present Weather               <
>     TMP    - Temperature in Fahrenheit                   <
>     DP     - Dew Point in Fahrenheit                     <
>     RH     - Relative Humidity in Percent                <
>     WIND   - Direction (from) and Speed in MPH           <
>     PRES   - Mean Sea Level Pressure (inches of Hg)      <
>     WCI    - Wind Chill Index                            <
>     VSB    - VISIBILITY IN MILES                         <
>     HX     - HEAT INDEX                                  <
>     TC     - TEMPERATURE IN CELSIUS                      <
>     VRB    - VARIABLE WIND DIRECTION                     <
>                                                          <
>>>>>>>>>>>>>>>>>>>>>>>>>>>> KEY <<<<<<<<<<<<<<<<<<<<<<<<<<<




USA.gov is the U.S. government's official web portal to all federal, state and local government web resources and services.